Temp
10 10 10 10 10 10 8 8 8 9 9 9 9 9 9 8 9 9 9 9 9 9 8 8 8 8 8 8 8 8 8 8
10 10 10 10 10 9 8 8 8 8 9 9 9 9 8 8 8 9 9 9 9 9 8 8 8 8 8 8 8 8 8 8
9 9 9 9 9 9 7 7 8 8 8 8 8 8 8 8 8 8 8 8 9 9 8 8 8 8 8 8 8 8 8 8
9 9 9 9 8 8 8 7 7 8 8 8 8 8 8 8 8 8 8 8 8 9 8 8 8 8 8 7 8 8 8 8
8 9 9 9 9 8 8 8 7 8 8 8 8 8 8 8 8 8 8 8 8 9 9 8 8 8 8 8 7 7 7 7
8 9 8 9 9 9 8 8 8 8 8 8 8 8 8 7 8 8 8 8 8 8 9 8 8 8 8 8 7 7 7 7
8 8 8 8 8 9 8 8 8 8 8 8 7 7 7 7 7 7 7 7 8 8 8 8 8 7 8 7 7 7 7 6
8 8 8 8 8 8 9 8 8 8 8 8 8 8 7 7 7 7 6 7 7 7 8 8 8 7 7 7 7 7 7 6
8 8 8 8 7 7 8 8 8 7 8 8 8 8 7 7 7 7 7 7 7 7 7 7 8 7 7 7 7 7 7 6
7 7 8 8 7 7 7 8 8 8 7 7 7 7 7 7 8 7 6 7 7 7 7 7 7 7 7 7 7 7 6 7
7 7 7 7 7 7 7 7 8 8 7 7 7 7 7 7 7 7 7 7 7 7 7 7 7 7 7 6 6 6 6 6
7 7 7 7 7 7 6 7 7 8 8 7 7 7 7 7 7 7 7 7 7 6 6 7 6 6 6 6 6 6 6 6
7 7 7 7 7 7 6 6 7 7 8 7 7 7 7 7 7 7 7 7 6 7 6 6 6 6 6 6 6 6 6 6
7 7 7 8 8 8 7 7 6 7 7 7 7 7 8 8 7 7 7 7 7 7 6 6 6 6 6 6 6 6 6 6
8 8 8 8 8 8 8 7 6 6 7 7 7 7 7 8 8 8 8 7 7 6 6 6 6 6 6 6 6 7 7 6
7 7 7 8 8 8 8 7 6 6 7 7 7 7 7 8 8 8 8 7 7 7 6 6 6 6 6 6 6 6 6 7
7 7 7 8 8 8 8 7 7 7 7 7 7 7 7 8 8 8 8 7 7 7 7 6 6 6 6 6 6 6 6 6
7 7 8 8 8 8 8 7 7 7 7 7 7 7 7 7 8 8 8 7 7 7 7 6 6 6 6 6 6 6 6 6
7 7 7 8 8 8 8 8 8 7 7 7 6 7 7 7 7 8 8 8 7 8 7 7 7 6 6 6 6 6 6 6
7 7 7 8 8 8 8 8 8 7 7 6 6 6 6 7 7 7 7 7 7 7 7 7 6 6 6 6 6 6 6 6
Height
3131 3130 3128 3129 3128 3129 3134 3139 3143 3148 3153 3157 3161 3164 3168 3171 3174 3176 3179 3181 3183 3186 3187 3188 3189 3188 3188 3190 3192 3194 3195 3197
3126 3126 3125 3125 3125 3127 3131 3137 3142 3146 3151 3155 3159 3163 3166 3169 3172 3174 3177 3180 3182 3185 3187 3188 3189 3191 3191 3191 3192 3194 3196 3198
3123 3122 3122 3122 3123 3125 3129 3135 3140 3144 3148 3152 3156 3160 3163 3166 3170 3173 3177 3178 3181 3183 3186 3189 3189 3191 3193 3193 3193 3195 3197 3199
3119 3119 3120 3122 3122 3124 3128 3132 3137 3141 3145 3149 3152 3157 3161 3164 3167 3171 3174 3176 3178 3182 3185 3188 3189 3191 3193 3194 3195 3196 3198 3198
3116 3117 3118 3120 3122 3123 3126 3129 3133 3137 3141 3145 3150 3154 3157 3160 3163 3166 3169 3173 3176 3180 3183 3186 3188 3190 3193 3194 3196 3197 3198 3199
3111 3112 3115 3117 3119 3121 3125 3127 3130 3134 3138 3141 3146 3150 3153 3157 3160 3163 3167 3171 3174 3178 3182 3184 3187 3189 3191 3194 3196 3197 3198 3199
3106 3108 3111 3113 3115 3118 3121 3124 3127 3132 3135 3139 3142 3146 3150 3154 3158 3161 3165 3169 3172 3176 3179 3182 3185 3187 3190 3192 3194 3197 3198 3199
3100 3102 3105 3108 3111 3114 3117 3120 3124 3127 3131 3135 3139 3142 3146 3150 3154 3157 3160 3164 3168 3173 3176 3179 3183 3185 3188 3190 3192 3194 3197 3199
3092 3096 3098 3102 3105 3109 3111 3115 3118 3122 3126 3130 3134 3138 3142 3146 3150 3153 3154 3159 3165 3170 3172 3175 3178 3181 3184 3187 3190 3192 3194 3197
3083 3087 3090 3094 3097 3102 3106 3107 3111 3115 3120 3124 3128 3132 3137 3140 3143 3147 3149 3154 3161 3165 3168 3171 3175 3178 3181 3184 3187 3190 3192 3194
3072 3077 3080 3085 3089 3092 3097 3100 3102 3107 3112 3115 3120 3125 3129 3134 3135 3140 3146 3149 3155 3161 3165 3167 3171 3175 3178 3181 3183 3186 3189 3191
3061 3065 3069 3074 3077 3079 3084 3089 3093 3098 3102 3107 3112 3117 3121 3124 3129 3133 3139 3142 3149 3156 3160 3162 3166 3170 3173 3176 3179 3181 3183 3186
3046 3051 3056 3061 3064 3067 3071 3075 3083 3088 3094 3099 3103 3107 3113 3118 3122 3125 3130 3136 3144 3148 3153 3157 3159 3162 3167 3170 3172 3175 3178 3181
3033 3037 3041 3047 3053 3058 3061 3067 3072 3080 3088 3092 3095 3099 3105 3111 3115 3118 3122 3130 3135 3139 3144 3149 3152 3156 3160 3164 3167 3171 3172 3176
3019 3023 3028 3034 3042 3048 3052 3056 3062 3068 3073 3079 3085 3091 3098 3103 3108 3110 3116 3122 3127 3132 3136 3141 3145 3149 3152 3157 3159 3161 3165 3170
3006 3011 3014 3023 3031 3037 3040 3044 3048 3055 3063 3072 3078 3083 3088 3093 3097 3103 3109 3113 3119 3124 3128 3133 3137 3142 3145 3149 3153 3157 3159 3163
2995 3000 3006 3013 3021 3028 3031 3036 3042 3050 3057 3063 3068 3073 3078 3083 3089 3096 3101 3106 3111 3116 3120 3124 3130 3133 3138 3142 3145 3150 3153 3157
2984 2990 2998 3005 3013 3019 3023 3028 3035 3040 3047 3052 3057 3062 3067 3074 3080 3086 3093 3098 3102 3107 3111 3116 3121 3126 3131 3134 3137 3142 3147 3151
2974 2981 2988 2995 3004 3011 3016 3022 3027 3032 3039 3043 3048 3053 3057 3065 3071 3076 3083 3089 3094 3099 3102 3108 3112 3117 3122 3126 3130 3134 3139 3143
2965 2972 2979 2988 2995 3003 3009 3014 3018 3025 3030 3035 3039 3044 3050 3057 3062 3068 3074 3080 3085 3090 3095 3100 3104 3109 3113 3118 3122 3126 3130 3134
Wind_Speed
18 21 18 16 15 21 34 36 34 32 31 30 29 27 24 22 20 18 16 13 10 9 10 8 11 14 16 14 13 14 13 12
16 18 18 14 15 24 36 37 35 32 32 31 29 28 26 24 23 20 18 15 12 10 10 9 10 11 14 15 14 13 13 12
13 16 11 10 13 25 38 38 36 33 32 32 31 30 28 26 23 21 19 17 14 12 11 11 10 10 11 13 14 13 12 12
10 12 9 9 7 22 37 40 38 36 34 35 34 32 30 27 26 24 22 20 18 16 13 13 12 9 10 10 12 13 12 12
15 15 13 9 10 16 36 41 40 39 37 37 35 34 32 31 30 29 27 23 21 19 16 14 13 11 9 9 9 11 12 11
21 19 18 16 12 13 29 41 42 41 40 40 39 37 36 34 33 31 28 25 23 20 18 15 15 14 12 10 9 9 10 10
21 20 20 20 19 16 20 38 43 42 41 41 41 40 39 36 34 32 29 25 23 22 20 18 16 16 14 12 11 9 8 8
30 29 25 24 21 22 20 28 41 44 43 42 40 40 41 39 38 36 34 29 27 24 22 20 18 17 17 15 13 11 9 9
36 35 34 29 28 27 26 25 34 44 44 44 42 41 41 40 41 39 39 32 29 27 26 24 23 21 19 18 16 14 13 11
38 39 39 36 33 30 32 32 31 38 45 46 45 44 42 43 39 41 40 35 30 29 28 27 25 24 22 20 18 17 15 14
42 44 45 42 42 41 41 39 37 36 40 46 48 46 45 44 44 43 36 37 34 32 32 30 28 26 24 23 21 20 18 17
49 49 48 44 42 41 42 47 44 41 40 41 45 48 48 47 44 41 40 42 34 32 34 34 32 28 27 25 25 24 23 22
47 49 48 47 44 46 43 49 50 47 43 42 42 46 46 46 46 46 42 38 32 37 38 37 38 36 31 31 29 28 27 25
55 55 54 50 46 48 48 47 51 50 43 41 42 42 44 43 45 46 45 38 40 42 41 41 42 39 37 33 33 32 32 29
53 53 53 49 46 45 46 44 47 50 51 51 50 45 43 42 44 44 42 41 40 41 42 42 43 43 41 39 38 36 32 30
42 42 46 49 43 43 46 49 51 53 54 49 46 45 43 46 45 43 42 40 40 41 43 44 44 44 44 43 41 37 35 30
42 37 44 44 43 38 42 45 44 45 47 48 49 49 47 47 47 44 44 41 42 39 43 44 45 47 46 44 43 40 38 35
45 38 40 44 41 37 34 36 36 39 41 47 46 49 48 44 45 48 45 43 44 41 42 44 46 46 46 46 46 43 39 36
51 42 42 41 44 41 37 36 38 36 39 45 46 48 48 47 43 47 47 44 44 42 43 43 45 46 46 46 45 44 42 41
52 46 43 42 42 41 39 40 39 38 34 37 45 47 46 46 46 46 43 46 46 46 44 43 44 43 44 46 47 46 45 44
Wind_Direction
272 286 293 284 251 220 200 198 199 199 199 198 197 197 197 194 194 192 186 180 172 152 136 125 109 106 102 101 100 99 100 102
276 289 307 282 249 211 197 196 199 198 199 199 198 199 200 199 199 197 195 190 184 175 153 147 126 118 115 111 111 110 110 113
278 295 302 265 247 211 195 197 199 198 200 199 199 202 202 202 203 204 206 198 193 191 172 164 146 137 131 125 118 116 122 122
269 282 279 285 253 217 199 199 200 199 201 201 199 203 205 203 206 207 209 205 201 203 192 177 161 162 145 140 133 126 126 132
253 263 279 273 263 230 209 204 204 204 201 202 201 203 205 206 209 211 211 210 210 209 206 189 174 172 173 159 151 142 134 134
248 250 250 264 262 250 227 213 210 211 207 204 204 207 210 211 215 217 217 213 214 214 213 200 188 181 187 181 173 166 154 145
251 249 245 244 262 263 240 226 218 216 215 213 210 212 215 214 217 219 220 217 220 218 217 210 201 190 192 196 190 186 180 170
251 253 254 254 241 258 258 237 229 223 222 221 220 220 218 218 219 222 222 217 222 222 221 217 211 201 195 200 201 197 201 197
253 253 255 254 257 243 247 245 236 233 229 227 226 227 225 224 224 227 228 224 224 228 224 220 214 210 202 201 205 205 205 211
255 256 259 254 254 252 240 237 242 236 233 233 231 231 229 229 229 229 232 233 225 225 233 229 222 216 211 206 209 211 213 214
249 255 256 258 258 258 248 235 238 239 234 233 234 234 233 231 233 234 234 243 230 226 232 234 230 224 218 212 210 214 217 218
249 252 254 253 259 252 237 235 231 232 235 233 232 233 234 234 234 234 230 235 234 229 231 238 234 228 224 221 217 216 219 219
249 252 247 248 248 239 238 233 231 228 231 233 231 231 232 233 234 237 236 236 229 236 227 225 236 232 225 224 223 222 223 224
253 250 248 245 236 239 245 240 229 230 227 234 232 231 229 231 235 235 237 232 229 230 227 225 231 233 233 229 229 231 230 227
249 249 246 235 229 236 241 234 228 226 225 230 232 230 228 227 230 234 236 234 232 231 231 229 231 235 235 233 231 233 234 234
237 238 241 220 225 232 238 233 229 223 226 229 231 231 228 227 228 230 233 235 234 231 233 233 232 235 237 237 237 237 239 241
221 224 225 216 222 232 236 230 230 227 228 229 235 232 231 229 229 230 231 229 235 233 233 234 233 233 237 240 241 242 243 243
216 220 218 219 221 224 223 223 227 228 228 231 232 230 232 231 231 231 233 232 232 235 235 235 236 236 236 239 243 245 248 249
213 215 214 214 217 220 222 224 227 231 234 232 231 229 231 230 231 232 233 234 234 235 237 234 236 238 239 240 242 246 249 249
216 215 215 215 217 220 226 227 231 232 235 233 231 229 231 235 235 234 234 234 236 235 237 238 236 238 242 242 244 244 248 250